TimeCDT,TemperatureF,Dew PointF,Humidity,Sea Level PressureIn,VisibilityMPH,Wind Direction,Wind SpeedMPH,Gust SpeedMPH,PrecipitationIn,Events,Conditions,WindDirDegrees,DateUTC
12:53 AM,52.0,37.0,57,29.87,10.0,South,18.4,27.6,N/A,,Clear,180,2012-10-09 05:53:00
1:53 AM,52.0,37.9,59,29.85,10.0,South,21.9,29.9,N/A,,Clear,180,2012-10-09 06:53:00
2:53 AM,51.8,39.2,62,29.87,10.0,South,18.4,-,N/A,,Clear,170,2012-10-09 07:53:00
3:53 AM,50.0,41.0,71,29.82,10.0,South,18.4,-,N/A,,Clear,180,2012-10-09 08:53:00
4:53 AM,48.9,42.1,77,29.81,10.0,South,13.8,20.7,N/A,,Clear,190,2012-10-09 09:53:00
5:53 AM,48.2,42.8,82,29.83,10.0,South,16.1,-,N/A,,Clear,190,2012-10-09 10:53:00
6:53 AM,46.9,42.1,83,29.80,10.0,South,16.1,-,N/A,,Clear,190,2012-10-09 11:53:00
7:53 AM,46.0,42.1,86,29.81,10.0,SSW,15.0,-,N/A,,Clear,200,2012-10-09 12:53:00
8:53 AM,48.9,43.0,80,29.82,10.0,SSW,12.7,-,N/A,,Clear,210,2012-10-09 13:53:00
9:53 AM,55.9,44.1,64,29.83,10.0,SW,15.0,-,N/A,,Clear,230,2012-10-09 14:53:00
10:53 AM,64.9,37.9,37,29.83,10.0,WNW,9.2,17.3,N/A,,Clear,290,2012-10-09 15:53:00
11:53 AM,71.1,32.0,24,29.82,10.0,NW,12.7,-,N/A,,Clear,310,2012-10-09 16:53:00
12:53 PM,70.0,34.0,27,29.83,10.0,NNW,16.1,23.0,N/A,,Clear,330,2012-10-09 17:53:00
1:53 PM,71.1,39.0,31,29.84,10.0,North,17.3,-,N/A,,Clear,360,2012-10-09 18:53:00
2:53 PM,73.9,41.0,30,29.85,10.0,North,17.3,25.3,N/A,,Clear,350,2012-10-09 19:53:00
3:53 PM,73.9,42.1,32,29.88,10.0,North,19.6,25.3,N/A,,Clear,350,2012-10-09 20:53:00
4:53 PM,71.1,41.0,34,29.91,10.0,North,16.1,26.5,N/A,,Clear,10,2012-10-09 21:53:00
5:53 PM,69.1,39.9,35,29.94,10.0,North,16.1,21.9,N/A,,Clear,10,2012-10-09 22:53:00
6:53 PM,64.0,39.0,40,29.98,10.0,NNE,12.7,21.9,N/A,,Clear,20,2012-10-09 23:53:00
7:53 PM,59.0,39.9,49,30.02,10.0,NNE,11.5,-,N/A,,Clear,20,2012-10-10 00:53:00
8:53 PM,55.9,41.0,57,30.06,10.0,NNE,10.4,-,N/A,,Clear,30,2012-10-10 01:53:00
9:53 PM,53.1,41.0,64,30.09,10.0,NNE,10.4,-,N/A,,Clear,30,2012-10-10 02:53:00
10:53 PM,50.0,39.9,68,30.12,10.0,NNE,11.5,-,N/A,,Clear,30,2012-10-10 03:53:00
11:53 PM,48.0,39.9,74,30.14,10.0,NE,6.9,-,N/A,,Clear,40,2012-10-10 04:53:00